| time (UTC) | temp C | wind direction | speed KPH | gust KPH | rain 1hr cm | rain 24hr cm | rain mn cm | humidity % | barometer mb |
| 20260506184604 | 10 | 127 | 0.0 | 0.0 | 0.00 | 0.25 | 0.00 | 100 | |
| 20260506183020 | 10 | 128 | 0.0 | 0.0 | 0.00 | 0.25 | 0.00 | 100 | |
| 20260506181435 | 10 | 131 | 0.0 | 0.0 | 0.00 | 0.28 | 0.00 | 100 | |
| 20260506175850 | 10 | 138 | 0.0 | 0.0 | 0.00 | 0.28 | 0.00 | 100 | |
| 20260506171137 | 10 | 138 | 0.0 | 0.0 | 0.00 | 0.28 | 0.00 | 100 | |
| 20260506165552 | 10 | 138 | 0.0 | 0.0 | 0.00 | 0.28 | 0.00 | 100 | |
| 20260506162423 | 10 | 137 | 0.0 | 0.0 | 0.00 | 0.28 | 0.00 | 100 | |
| 20260506160839 | 11 | 137 | 0.0 | 0.0 | 0.00 | 0.30 | 0.00 | 100 | |
| 20260506153710 | 11 | 137 | 0.0 | 0.0 | 0.00 | 0.30 | 0.00 | 100 | |
| 20260506152125 | 10 | 137 | 0.0 | 0.0 | 0.00 | 0.28 | 0.00 | 100 | |
| 20260506150541 | 10 | 138 | 0.0 | 0.0 | 0.00 | 0.28 | 0.00 | 100 | |
| 20260506144956 | 10 | 138 | 0.0 | 0.0 | 0.00 | 0.28 | 0.00 | 100 | |
| 20260506143412 | 10 | 137 | 0.0 | 0.0 | 0.00 | 0.28 | 0.00 | 100 | |
| 20260506134658 | 10 | 138 | 0.0 | 0.0 | 0.00 | 0.28 | 0.00 | 100 | |
| 20260506131530 | 10 | 138 | 0.0 | 0.0 | 0.00 | 0.28 | 0.00 | 100 | |
| 20260506125945 | 10 | 137 | 0.0 | 0.0 | 0.00 | 0.25 | 0.00 | 100 | |
| 20260506124400 | 10 | 138 | 0.0 | 0.0 | 0.00 | 0.25 | 0.00 | 100 | |
| 20260506122816 | 10 | 138 | 0.0 | 0.0 | 0.00 | 0.25 | 0.00 | 100 | |
| 20260506115647 | 10 | 138 | 0.0 | 0.0 | 0.00 | 0.28 | 0.00 | 100 | |
| 20260506105350 | 12 | 136 | 0.0 | 0.0 | 0.00 | 0.33 | 0.00 | 100 | |
| 20260506100639 | 13 | 142 | 0.0 | 0.0 | 0.00 | 0.36 | 0.00 | 100 | |
| 20260506095055 | 13 | 142 | 0.0 | 0.0 | 0.00 | 0.36 | 0.00 | 100 | |
| 20260506093511 | 12 | 143 | 0.0 | 0.0 | 0.00 | 0.33 | 0.00 | 100 | |
| 20260506090342 | 12 | 143 | 0.0 | 0.0 | 0.00 | 0.33 | 0.00 | 100 | |
| 20260506084758 | 12 | 143 | 0.0 | 0.0 | 0.00 | 0.33 | 0.00 | 100 | |
| 20260506081630 | 12 | 143 | 0.0 | 0.0 | 0.00 | 0.33 | 0.00 | 100 | |
| 20260506072917 | 11 | 143 | 0.0 | 0.0 | 0.00 | 0.30 | 0.00 | 100 | |
| 20260506071333 | 11 | 144 | 0.0 | 0.0 | 0.00 | 0.30 | 0.00 | 100 | |
| 20260506061035 | 10 | 139 | 0.0 | 0.0 | 0.00 | 0.25 | 0.00 | 100 | |
| 20260506050735 | 8 | 129 | 0.0 | 0.0 | 0.00 | 0.23 | 0.00 | 100 | |
| 20260506043605 | 8 | 125 | 0.0 | 0.0 | 0.00 | 0.23 | 0.00 | 100 | |
| 20260506042019 | 8 | 124 | 0.0 | 0.0 | 0.00 | 0.23 | 0.00 | 100 | |
| 20260506040434 | 8 | 124 | 0.0 | 0.0 | 0.00 | 0.23 | 0.00 | 100 | |
| 20260506033304 | 8 | 125 | 0.0 | 0.0 | 0.00 | 0.23 | 0.00 | 100 | |
| 20260506031719 | 8 | 125 | 0.0 | 0.0 | 0.00 | 0.23 | 0.00 | 100 | |
| 20260506030134 | 8 | 125 | 0.0 | 0.0 | 0.00 | 0.23 | 0.00 | 100 | |
| 20260506024549 | 8 | 125 | 0.0 | 0.0 | 0.00 | 0.23 | 0.00 | 100 | |
| 20260506015833 | 10 | 125 | 0.0 | 0.0 | 0.00 | 0.25 | 0.00 | 100 | |
| 20260506014248 | 10 | 125 | 0.0 | 0.0 | 0.00 | 0.25 | 0.00 | 100 | |
| 20260506012703 | 10 | 125 | 0.0 | 0.0 | 0.00 | 0.25 | 0.00 | 100 | |
| 20260506011118 | 10 | 125 | 0.0 | 0.0 | 0.00 | 0.25 | 0.00 | 100 | |
| 20260506005533 | 8 | 125 | 0.0 | 0.0 | 0.00 | 0.23 | 0.00 | 100 | |
| 20260506003948 | 8 | 125 | 0.0 | 0.0 | 0.00 | 0.23 | 0.00 | 100 | |
| 20260506002403 | 8 | 125 | 0.0 | 0.0 | 0.00 | 0.23 | 0.00 | 100 | |
| 20260506000818 | 8 | 125 | 0.0 | 0.0 | 0.00 | 0.23 | 0.00 | 100 | |
| 20260505235233 | 8 | 125 | 0.0 | 0.0 | 0.00 | 0.23 | 0.00 | 100 | |
| 20260505233648 | 8 | 125 | 0.0 | 0.0 | 0.00 | 0.23 | 0.00 | 100 | |
| 20260505232103 | 8 | 125 | 0.0 | 0.0 | 0.00 | 0.23 | 0.00 | 100 | |
| 20260505230518 | 8 | 126 | 0.0 | 0.0 | 0.00 | 0.23 | 0.00 | 100 | |
| 20260505224933 | 10 | 126 | 0.0 | 0.0 | 0.00 | 0.25 | 0.00 | 100 | |
| 20260505223348 | 10 | 126 | 0.0 | 0.0 | 0.00 | 0.25 | 0.00 | 100 | |
| 20260505221803 | 10 | 126 | 0.0 | 0.0 | 0.00 | 0.25 | 0.00 | 100 | |
| 20260505220218 | 8 | 126 | 0.0 | 0.0 | 0.00 | 0.23 | 0.00 | 100 | |
| 20260505214634 | 10 | 126 | 0.0 | 0.0 | 0.00 | 0.25 | 0.00 | 100 | |
| 20260505213049 | 10 | 126 | 0.0 | 0.0 | 0.00 | 0.25 | 0.00 | 100 | |
| 20260505211504 | 10 | 126 | 0.0 | 0.0 | 0.00 | 0.25 | 0.00 | 100 | |
| 20260505204334 | 10 | 126 | 0.0 | 0.0 | 0.00 | 0.28 | 0.00 | 100 | |
| 20260505202750 | 10 | 127 | 0.0 | 0.0 | 0.00 | 0.28 | 0.00 | 100 | |
| 20260505201205 | 10 | 127 | 0.0 | 0.0 | 0.00 | 0.28 | 0.00 | 100 | |
| 20260505195620 | 11 | 127 | 0.0 | 0.0 | 0.00 | 0.30 | 0.00 | 100 | |
| 20260505192451 | 11 | 127 | 0.0 | 0.0 | 0.00 | 0.30 | 0.00 | 100 | |
| 20260505190907 | 12 | 127 | 0.0 | 0.0 | 0.00 | 0.33 | 0.00 | 100 |